| time (UTC) | temp F | wind direction | speed MPH | gust MPH | rain 1hr in | rain 24hr in | rain mn in | humidity % | barometer mb |
| 20260507071128 | 48 | 43 | 4.0 | 4.0 | 0.00 | 0.00 | 0.00 | 54 | 1018.3 |
| 20260507070128 | 47 | 40 | 3.0 | 4.0 | 0.00 | 0.00 | 0.00 | 55 | 1018.2 |
| 20260507065128 | 47 | 39 | 2.0 | 3.0 | 0.00 | 0.00 | 0.00 | 56 | 1018.3 |
| 20260507064128 | 47 | 244 | 2.0 | 3.0 | 0.00 | 0.00 | 0.00 | 57 | 1018.3 |
| 20260507063128 | 46 | 33 | 1.0 | 2.0 | 0.00 | 0.00 | 0.00 | 61 | 1018.3 |
| 20260507062128 | 46 | 43 | 1.0 | 3.0 | 0.00 | 0.00 | 0.00 | 62 | 1018.4 |
| 20260507061128 | 45 | 43 | 2.0 | 2.0 | 0.00 | 0.00 | 0.00 | 67 | 1018.3 |
| 20260507060128 | 45 | 19 | 2.0 | 3.0 | 0.00 | 0.00 | 0.00 | 73 | 1018.3 |
| 20260507055128 | 44 | 30 | 2.0 | 3.0 | 0.00 | 0.00 | 0.00 | 78 | 1018.4 |
| 20260507054128 | 43 | 260 | 2.0 | 3.0 | 0.00 | 0.00 | 0.00 | 85 | 1018.3 |
| 20260507053128 | 42 | 257 | 2.0 | 2.0 | 0.00 | 0.00 | 0.00 | 94 | 1018.4 |
| 20260507052128 | 40 | 278 | 2.0 | 3.0 | 0.00 | 0.00 | 0.00 | 99 | 1018.4 |
| 20260507051128 | 39 | 257 | 2.0 | 3.0 | 0.00 | 0.00 | 0.00 | 99 | 1018.3 |
| 20260507050128 | 37 | 236 | 1.0 | 2.0 | 0.00 | 0.00 | 0.00 | 99 | 1018.3 |
| 20260507045129 | 36 | 345 | 1.0 | 2.0 | 0.00 | 0.00 | 0.00 | 99 | 1018.4 |
| 20260507044129 | 34 | 244 | 0.0 | 1.0 | 0.00 | 0.00 | 0.00 | 99 | 1018.3 |
| 20260507043129 | 33 | 43 | 0.0 | 2.0 | 0.00 | 0.00 | 0.00 | 99 | 1018.4 |
| 20260507042129 | 32 | 243 | 1.0 | 1.0 | 0.00 | 0.00 | 0.00 | 99 | 1018.4 |
| 20260507041129 | 31 | 43 | 0.0 | 1.0 | 0.00 | 0.00 | 0.00 | 99 | 1018.3 |
| 20260507040129 | 30 | 43 | 0.0 | 1.0 | 0.00 | 0.00 | 0.00 | 99 | 1018.4 |
| 20260507035129 | 30 | 251 | 1.0 | 1.0 | 0.00 | 0.00 | 0.00 | 99 | 1018.4 |
| 20260507034129 | 29 | 274 | 1.0 | 1.0 | 0.00 | 0.00 | 0.00 | 99 | 1018.3 |
| 20260507033129 | 28 | 303 | 0.0 | 1.0 | 0.00 | 0.00 | 0.00 | 99 | 1018.3 |
| 20260507032130 | 28 | 43 | 0.0 | 0.0 | 0.00 | 0.00 | 0.00 | 99 | 1018.3 |
| 20260507031129 | 27 | 347 | 0.0 | 0.0 | 0.00 | 0.00 | 0.00 | 99 | 1018.2 |
| 20260507030129 | 27 | 293 | 0.0 | 0.0 | 0.00 | 0.00 | 0.00 | 99 | 1018.0 |
| 20260507025129 | 26 | 334 | 0.0 | 0.0 | 0.00 | 0.00 | 0.00 | 99 | 1018.1 |
| 20260507024129 | 26 | 334 | 0.0 | 0.0 | 0.00 | 0.00 | 0.00 | 99 | 1018.0 |
| 20260507023129 | 26 | 223 | 0.0 | 0.0 | 0.00 | 0.00 | 0.00 | 99 | 1017.9 |
| 20260507022129 | 26 | 223 | 0.0 | 0.0 | 0.00 | 0.00 | 0.00 | 99 | 1017.9 |
| 20260507021129 | 26 | 223 | 0.0 | 0.0 | 0.00 | 0.00 | 0.00 | 99 | 1017.9 |
| 20260507020129 | 26 | 223 | 0.0 | 0.0 | 0.00 | 0.00 | 0.00 | 99 | 1017.8 |
| 20260507015129 | 26 | 223 | 0.0 | 0.0 | 0.00 | 0.00 | 0.00 | 99 | 1017.8 |
| 20260507014129 | 26 | 223 | 0.0 | 0.0 | 0.00 | 0.00 | 0.00 | 99 | 1017.7 |
| 20260507013129 | 26 | 223 | 0.0 | 0.0 | 0.00 | 0.00 | 0.00 | 99 | 1017.6 |
| 20260507012129 | 26 | 223 | 0.0 | 0.0 | 0.00 | 0.00 | 0.00 | 99 | 1017.5 |
| 20260507011129 | 26 | 223 | 0.0 | 0.0 | 0.00 | 0.00 | 0.00 | 99 | 1017.6 |
| 20260507010129 | 26 | 223 | 0.0 | 0.0 | 0.00 | 0.00 | 0.00 | 99 | 1017.5 |
| 20260507005129 | 27 | 223 | 0.0 | 0.0 | 0.00 | 0.00 | 0.00 | 99 | 1017.4 |
| 20260507004129 | 27 | 223 | 0.0 | 0.0 | 0.00 | 0.00 | 0.00 | 99 | 1017.3 |
| 20260507003129 | 27 | 223 | 0.0 | 0.0 | 0.00 | 0.00 | 0.00 | 99 | 1017.3 |
| 20260507002131 | 27 | 334 | 0.0 | 0.0 | 0.00 | 0.00 | 0.00 | 99 | 1017.2 |
| 20260507001129 | 27 | 334 | 0.0 | 0.0 | 0.00 | 0.00 | 0.00 | 99 | 1017.2 |
| 20260507000129 | 27 | 334 | 0.0 | 0.0 | 0.00 | 0.00 | 0.00 | 99 | 1017.1 |
| 20260506235129 | 28 | 334 | 0.0 | 0.0 | 0.00 | 0.00 | 0.00 | 99 | 1017.0 |
| 20260506234129 | 28 | 334 | 0.0 | 0.0 | 0.00 | 0.00 | 0.00 | 98 | 1016.9 |
| 20260506233129 | 28 | 334 | 0.0 | 0.0 | 0.00 | 0.00 | 0.00 | 97 | 1016.7 |
| 20260506232129 | 28 | 334 | 0.0 | 0.0 | 0.00 | 0.00 | 0.00 | 96 | 1016.6 |
| 20260506231129 | 28 | 334 | 0.0 | 0.0 | 0.00 | 0.00 | 0.00 | 95 | 1016.7 |
| 20260506230129 | 28 | 223 | 0.0 | 0.0 | 0.00 | 0.00 | 0.00 | 95 | 1016.5 |
| 20260506225129 | 28 | 223 | 0.0 | 0.0 | 0.00 | 0.00 | 0.00 | 94 | 1016.5 |
| 20260506224129 | 29 | 223 | 0.0 | 0.0 | 0.00 | 0.00 | 0.00 | 93 | 1016.4 |
| 20260506223129 | 29 | 334 | 0.0 | 0.0 | 0.00 | 0.00 | 0.00 | 93 | 1016.3 |
| 20260506222129 | 29 | 334 | 0.0 | 0.0 | 0.00 | 0.00 | 0.00 | 92 | 1016.3 |
| 20260506221129 | 29 | 348 | 0.0 | 0.0 | 0.00 | 0.00 | 0.00 | 91 | 1016.1 |
| 20260506220129 | 29 | 334 | 0.0 | 0.0 | 0.00 | 0.00 | 0.00 | 91 | 1016.1 |
| 20260506215129 | 29 | 336 | 0.0 | 0.0 | 0.00 | 0.00 | 0.00 | 89 | 1015.9 |
| 20260506214129 | 30 | 334 | 0.0 | 0.0 | 0.00 | 0.00 | 0.00 | 88 | 1015.8 |
| 20260506213129 | 30 | 334 | 0.0 | 0.0 | 0.00 | 0.00 | 0.00 | 88 | 1015.7 |
| 20260506212129 | 30 | 338 | 0.0 | 0.0 | 0.00 | 0.00 | 0.00 | 86 | 1015.7 |
| 20260506211129 | 30 | 334 | 0.0 | 0.0 | 0.00 | 0.00 | 0.00 | 86 | 1015.7 |
| 20260506210129 | 30 | 334 | 0.0 | 0.0 | 0.00 | 0.00 | 0.00 | 84 | 1015.6 |
| 20260506205129 | 30 | 334 | 0.0 | 0.0 | 0.00 | 0.00 | 0.00 | 82 | 1015.6 |
| 20260506204129 | 31 | 334 | 0.0 | 0.0 | 0.00 | 0.00 | 0.00 | 81 | 1015.5 |
| 20260506203129 | 31 | 334 | 0.0 | 0.0 | 0.00 | 0.00 | 0.00 | 80 | 1015.5 |
| 20260506202129 | 31 | 334 | 0.0 | 0.0 | 0.00 | 0.00 | 0.00 | 78 | 1015.5 |
| 20260506201129 | 32 | 223 | 0.0 | 0.0 | 0.00 | 0.00 | 0.00 | 76 | 1015.5 |
| 20260506200129 | 32 | 336 | 0.0 | 0.0 | 0.00 | 0.00 | 0.00 | 75 | 1015.5 |
| 20260506195129 | 32 | 334 | 0.0 | 0.0 | 0.00 | 0.00 | 0.00 | 74 | 1015.4 |
| 20260506194130 | 33 | 334 | 0.0 | 0.0 | 0.00 | 0.00 | 0.00 | 73 | 1015.3 |
| 20260506193130 | 33 | 334 | 0.0 | 1.0 | 0.00 | 0.00 | 0.00 | 72 | 1015.3 |
| 20260506192130 | 34 | 292 | 0.0 | 0.0 | 0.00 | 0.00 | 0.00 | 71 | 1015.2 |
| 20260506191130 | 35 | 21 | 0.0 | 0.0 | 0.00 | 0.00 | 0.00 | 69 | 1015.0 |
| 20260506190130 | 36 | 21 | 0.0 | 1.0 | 0.00 | 0.00 | 0.00 | 67 | 1015.0 |
| 20260506185130 | 37 | 39 | 0.0 | 1.0 | 0.00 | 0.00 | 0.00 | 65 | 1014.9 |
| 20260506184130 | 38 | 178 | 0.0 | 0.0 | 0.00 | 0.00 | 0.00 | 63 | 1014.8 |
| 20260506183130 | 39 | 178 | 1.0 | 1.0 | 0.00 | 0.00 | 0.00 | 60 | 1014.7 |
| 20260506182130 | 40 | 178 | 0.0 | 1.0 | 0.00 | 0.00 | 0.00 | 58 | 1014.6 |
| 20260506181130 | 41 | 323 | 0.0 | 1.0 | 0.00 | 0.00 | 0.00 | 55 | 1014.4 |
| 20260506180130 | 43 | 178 | 0.0 | 0.0 | 0.00 | 0.00 | 0.00 | 52 | 1014.3 |
| 20260506175130 | 44 | 178 | 0.0 | 1.0 | 0.00 | 0.00 | 0.00 | 49 | 1014.1 |
| 20260506174130 | 46 | 223 | 0.0 | 1.0 | 0.00 | 0.00 | 0.00 | 46 | 1014.1 |
| 20260506173130 | 47 | 178 | 0.0 | 1.0 | 0.00 | 0.00 | 0.00 | 44 | 1014.0 |
| 20260506172130 | 47 | 201 | 1.0 | 1.0 | 0.00 | 0.00 | 0.00 | 43 | 1013.8 |
| 20260506171130 | 47 | 278 | 2.0 | 3.0 | 0.00 | 0.00 | 0.00 | 42 | 1013.8 |
| 20260506170130 | 48 | 178 | 1.0 | 7.0 | 0.00 | 0.00 | 0.00 | 42 | 1013.7 |
| 20260506165130 | 48 | 240 | 1.0 | 8.0 | 0.00 | 0.00 | 0.00 | 41 | 1013.6 |
| 20260506164130 | 48 | 191 | 3.0 | 5.0 | 0.00 | 0.00 | 0.00 | 40 | 1013.5 |
| 20260506163130 | 49 | 196 | 3.0 | 6.0 | 0.00 | 0.00 | 0.00 | 40 | 1013.4 |
| 20260506162130 | 49 | 202 | 3.0 | 12.0 | 0.00 | 0.00 | 0.00 | 40 | 1013.3 |
| 20260506161130 | 49 | 272 | 3.0 | 8.0 | 0.00 | 0.00 | 0.00 | 39 | 1013.2 |
| 20260506160130 | 49 | 240 | 2.0 | 6.0 | 0.00 | 0.00 | 0.00 | 40 | 1013.2 |
| 20260506155130 | 48 | 258 | 0.0 | 3.0 | 0.00 | 0.00 | 0.00 | 41 | 1013.1 |
| 20260506154130 | 48 | 213 | 1.0 | 5.0 | 0.00 | 0.00 | 0.00 | 41 | 1013.0 |
| 20260506153130 | 48 | 215 | 1.0 | 4.0 | 0.00 | 0.00 | 0.00 | 40 | 1013.0 |
| 20260506152130 | 49 | 213 | 2.0 | 6.0 | 0.00 | 0.00 | 0.00 | 40 | 1012.9 |
| 20260506151130 | 49 | 216 | 4.0 | 6.0 | 0.00 | 0.00 | 0.00 | 38 | 1012.9 |
| 20260506150130 | 49 | 233 | 2.0 | 12.0 | 0.00 | 0.00 | 0.00 | 36 | 1012.8 |
| 20260506145130 | 50 | 354 | 3.0 | 9.0 | 0.00 | 0.00 | 0.00 | 37 | 1012.7 |
| 20260506144130 | 50 | 251 | 4.0 | 12.0 | 0.00 | 0.00 | 0.00 | 36 | 1012.7 |
| 20260506143130 | 50 | 265 | 6.0 | 8.0 | 0.00 | 0.00 | 0.00 | 37 | 1012.6 |
| 20260506142130 | 50 | 241 | 3.0 | 10.0 | 0.00 | 0.00 | 0.00 | 39 | 1012.5 |
| 20260506141130 | 50 | 21 | 4.0 | 4.0 | 0.00 | 0.00 | 0.00 | 39 | 1012.3 |
| 20260506140130 | 50 | 237 | 3.0 | 10.0 | 0.00 | 0.00 | 0.00 | 37 | 1012.2 |
| 20260506135130 | 50 | 345 | 0.0 | 6.0 | 0.00 | 0.00 | 0.00 | 40 | 1012.2 |
| 20260506134130 | 50 | 324 | 3.0 | 7.0 | 0.00 | 0.00 | 0.00 | 40 | 1012.2 |
| 20260506133130 | 50 | 15 | 1.0 | 11.0 | 0.00 | 0.00 | 0.00 | 40 | 1012.1 |
| 20260506132130 | 51 | 250 | 6.0 | 11.0 | 0.00 | 0.00 | 0.00 | 40 | 1011.9 |
| 20260506131130 | 51 | 226 | 5.0 | 10.0 | 0.00 | 0.00 | 0.00 | 41 | 1011.9 |
| 20260506130130 | 50 | 247 | 6.0 | 12.0 | 0.00 | 0.00 | 0.00 | 41 | 1012.0 |
| 20260506125130 | 50 | 270 | 5.0 | 10.0 | 0.00 | 0.00 | 0.00 | 40 | 1011.6 |
| 20260506124130 | 50 | 233 | 6.0 | 11.0 | 0.00 | 0.00 | 0.00 | 39 | 1011.6 |
| 20260506123130 | 50 | 243 | 8.0 | 12.0 | 0.00 | 0.00 | 0.00 | 38 | 1011.5 |
| 20260506122130 | 50 | 16 | 2.0 | 8.0 | 0.00 | 0.00 | 0.00 | 40 | 1011.4 |
| 20260506121130 | 50 | 229 | 4.0 | 12.0 | 0.00 | 0.00 | 0.00 | 38 | 1011.4 |
| 20260506120130 | 51 | 230 | 4.0 | 10.0 | 0.00 | 0.00 | 0.00 | 40 | 1011.4 |
| 20260506115130 | 51 | 258 | 6.0 | 12.0 | 0.00 | 0.00 | 0.00 | 39 | 1011.3 |
| 20260506114130 | 51 | 260 | 4.0 | 5.0 | 0.00 | 0.00 | 0.00 | 41 | 1011.1 |
| 20260506113130 | 50 | 240 | 5.0 | 14.0 | 0.00 | 0.00 | 0.00 | 42 | 1011.1 |
| 20260506112130 | 49 | 206 | 6.0 | 12.0 | 0.00 | 0.00 | 0.00 | 43 | 1010.9 |
| 20260506111130 | 49 | 232 | 3.0 | 9.0 | 0.00 | 0.00 | 0.00 | 43 | 1011.0 |
| 20260506110130 | 50 | 232 | 7.0 | 8.0 | 0.00 | 0.00 | 0.00 | 41 | 1011.0 |
| 20260506105130 | 51 | 316 | 2.0 | 9.0 | 0.00 | 0.00 | 0.00 | 40 | 1010.8 |
| 20260506104131 | 51 | 15 | 0.0 | 13.0 | 0.00 | 0.00 | 0.00 | 42 | 1010.6 |
| 20260506103130 | 50 | 209 | 5.0 | 9.0 | 0.00 | 0.00 | 0.00 | 44 | 1010.5 |
| 20260506102130 | 49 | 206 | 3.0 | 11.0 | 0.00 | 0.00 | 0.00 | 45 | 1010.5 |
| 20260506101130 | 49 | 232 | 2.0 | 9.0 | 0.00 | 0.00 | 0.00 | 45 | 1010.5 |
| 20260506100130 | 50 | 258 | 7.0 | 10.0 | 0.00 | 0.00 | 0.00 | 41 | 1010.4 |
| 20260506095131 | 50 | 305 | 4.0 | 17.0 | 0.00 | 0.00 | 0.00 | 44 | 1010.2 |
| 20260506094130 | 50 | 236 | 8.0 | 14.0 | 0.00 | 0.00 | 0.00 | 45 | 1010.1 |
| 20260506093131 | 49 | 219 | 6.0 | 9.0 | 0.00 | 0.08 | 0.00 | 47 | 1010.0 |
| 20260506092131 | 48 | 226 | 8.0 | 9.0 | 0.00 | 0.08 | 0.00 | 47 | 1009.9 |
| 20260506091131 | 48 | 246 | 5.0 | 14.0 | 0.00 | 0.08 | 0.00 | 48 | 1009.9 |
| 20260506090131 | 47 | 240 | 8.0 | 11.0 | 0.00 | 0.08 | 0.00 | 53 | 1009.8 |
| 20260506085131 | 47 | 246 | 4.0 | 5.0 | 0.00 | 0.08 | 0.00 | 52 | 1009.9 |
| 20260506084131 | 47 | 274 | 8.0 | 8.0 | 0.00 | 0.08 | 0.00 | 51 | 1009.7 |
| 20260506083131 | 47 | 227 | 4.0 | 12.0 | 0.00 | 0.08 | 0.00 | 51 | 1009.6 |
| 20260506082131 | 47 | 217 | 3.0 | 9.0 | 0.00 | 0.08 | 0.00 | 51 | 1009.5 |
| 20260506081131 | 47 | 233 | 6.0 | 8.0 | 0.00 | 0.08 | 0.00 | 50 | 1009.5 |
| 20260506080131 | 47 | 286 | 2.0 | 8.0 | 0.00 | 0.08 | 0.00 | 53 | 1009.4 |
| 20260506073131 | 46 | 199 | 2.0 | 9.0 | 0.00 | 0.08 | 0.00 | 56 | 1009.1 |
| 20260506072131 | 47 | 234 | 3.0 | 9.0 | 0.00 | 0.08 | 0.00 | 56 | 1009.0 |